Hourly Weather Rudzienice

Today, 13 April, Tuesday

Time Temperature Precipitation Wind Pressure Humidity
00:00 +1°C° 0 mm 4 mps 757 mmHg 85%
01:00 +2°C° 0 mm 3 mps 758 mmHg 83%
02:00 +2°C° 0 mm 3 mps 758 mmHg 83%
03:00 +1°C° 0 mm 3 mps 758 mmHg 82%
04:00 +1°C° 0 mm 3 mps 758 mmHg 82%
05:00 +2°C° 0 mm 3 mps 758 mmHg 79%
06:00 +2°C° 0 mm 3 mps 758 mmHg 77%
07:00 +2°C° 0 mm 3 mps 758 mmHg 75%
08:00 +4°C° 0 mm 3 mps 758 mmHg 67%
09:00 +5°C° 0 mm 4 mps 758 mmHg 59%
10:00 +6°C° 0 mm 4 mps 758 mmHg 52%
11:00 +7°C° 0 mm 4 mps 758 mmHg 48%
12:00 +7°C° 0 mm 4 mps 758 mmHg 45%
13:00 +7°C° 0 mm 4 mps 758 mmHg 41%
14:00 +7°C° 0 mm 4 mps 758 mmHg 41%
15:00 +7°C° 0 mm 4 mps 758 mmHg 42%
16:00 +7°C° 0 mm 4 mps 757 mmHg 42%
17:00 +7°C° 0 mm 3 mps 757 mmHg 50%
18:00 +4°C° 0 mm 3 mps 758 mmHg 58%
19:00 +4°C° 0 mm 2 mps 758 mmHg 66%
20:00 +3°C° 0 mm 2 mps 758 mmHg 70%
21:00 +3°C° 0 mm 2 mps 758 mmHg 73%
22:00 +3°C° 0 mm 1 mps 758 mmHg 77%
23:00 +3°C° 0 mm 1 mps 757 mmHg 78%

Tomorrow, 14 April, Wednesday

Time Temperature Precipitation Wind Pressure Humidity
00:00 +2°C° 0 mm 2 mps 757 mmHg 80%
01:00 +2°C° 0 mm 2 mps 757 mmHg 81%
02:00 +1°C° 0 mm 2 mps 757 mmHg 81%
03:00 +1°C° 0 mm 2 mps 757 mmHg 81%
04:00 +1°C° 0 mm 2 mps 756 mmHg 81%
05:00 +2°C° 0 mm 2 mps 757 mmHg 79%
06:00 +2°C° 0 mm 2 mps 757 mmHg 77%
07:00 +2°C° 0 mm 3 mps 757 mmHg 75%
08:00 +3°C° 0 mm 3 mps 757 mmHg 71%
09:00 +4°C° 0 mm 3 mps 757 mmHg 67%
10:00 +5°C° 0 mm 3 mps 757 mmHg 63%
11:00 +5°C° 0 mm 4 mps 756 mmHg 62%
12:00 +6°C° 0 mm 4 mps 756 mmHg 60%
13:00 +6°C° 0 mm 5 mps 756 mmHg 58%
14:00 +5°C° 0 mm 5 mps 756 mmHg 61%
15:00 +5°C° 0 mm 5 mps 756 mmHg 65%
16:00 +5°C° 0 mm 5 mps 756 mmHg 68%
17:00 +3°C° 0 mm 5 mps 756 mmHg 72%
18:00 +2°C° 0 mm 5 mps 757 mmHg 77%
19:00 +1°C° 0 mm 5 mps 757 mmHg 81%
20:00 +1°C° 0 mm 5 mps 757 mmHg 82%
21:00 +1°C° 0 mm 5 mps 757 mmHg 83%
22:00 +1°C° 0 mm 5 mps 757 mmHg 85%
23:00 0°C° 0.2 mm 5 mps 756 mmHg 88%

Day after tomorrow, 15 April, Thursday

Time Temperature Precipitation Wind Pressure Humidity
00:00 0°C° 0.2 mm 5 mps 756 mmHg 91%
01:00 0°C° 0.2 mm 5 mps 756 mmHg 95%
02:00 0°C° 0.1 mm 5 mps 756 mmHg 94%
03:00 0°C° 0.1 mm 5 mps 756 mmHg 94%
04:00 -1°C° 0.1 mm 6 mps 756 mmHg 93%
05:00 -1°C° 0.2 mm 6 mps 756 mmHg 94%
06:00 -1°C° 0.2 mm 6 mps 756 mmHg 95%
07:00 -1°C° 0.2 mm 6 mps 756 mmHg 96%
08:00 -1°C° 0.3 mm 6 mps 755 mmHg 95%
09:00 +1°C° 0.3 mm 6 mps 755 mmHg 94%
10:00 +1°C° 0.3 mm 6 mps 755 mmHg 93%
11:00 +1°C° 0.5 mm 6 mps 755 mmHg 94%
12:00 +1°C° 0.5 mm 6 mps 755 mmHg 95%
13:00 -1°C° 0.5 mm 6 mps 755 mmHg 96%
14:00 +1°C° 0.5 mm 6 mps 755 mmHg 95%
15:00 +1°C° 0.5 mm 5 mps 755 mmHg 94%
16:00 +2°C° 0.5 mm 5 mps 755 mmHg 92%
17:00 +2°C° 0.1 mm 5 mps 755 mmHg 91%
18:00 +3°C° 0.1 mm 5 mps 755 mmHg 89%
19:00 +3°C° 0.1 mm 5 mps 755 mmHg 87%
20:00 +2°C° 0 mm 5 mps 755 mmHg 90%
21:00 +2°C° 0 mm 5 mps 755 mmHg 93%
22:00 +2°C° 0 mm 5 mps 755 mmHg 96%
23:00 +2°C° 0.1 mm 5 mps 755 mmHg 96%

16 April, Friday

Time Temperature Precipitation Wind Pressure Humidity
00:00 +1°C° 0.1 mm 5 mps 755 mmHg 96%
01:00 +1°C° 0.1 mm 5 mps 755 mmHg 96%
02:00 +1°C° 0.2 mm 4 mps 755 mmHg 97%
03:00 +1°C° 0.2 mm 4 mps 754 mmHg 97%
04:00 +1°C° 0.2 mm 4 mps 754 mmHg 97%
05:00 +1°C° 0.1 mm 4 mps 754 mmHg 97%
06:00 +1°C° 0.1 mm 4 mps 754 mmHg 96%
07:00 +1°C° 0.1 mm 4 mps 754 mmHg 96%
08:00 +1°C° 0.3 mm 4 mps 754 mmHg 96%
09:00 +1°C° 0.3 mm 4 mps 754 mmHg 96%
10:00 +1°C° 0.3 mm 4 mps 754 mmHg 96%
11:00 +3°C° 0.2 mm 4 mps 755 mmHg 96%
12:00 +3°C° 0.2 mm 4 mps 755 mmHg 96%
13:00 +3°C° 0.2 mm 4 mps 755 mmHg 96%
14:00 +4°C° 0 mm 3 mps 755 mmHg 96%
15:00 +5°C° 0 mm 3 mps 755 mmHg 96%
16:00 +5°C° 0 mm 3 mps 755 mmHg 96%
17:00 +5°C° 0 mm 3 mps 755 mmHg 96%
18:00 +7°C° 0 mm 3 mps 755 mmHg 95%
19:00 +6°C° 0 mm 4 mps 756 mmHg 95%
20:00 +6°C° 0 mm 4 mps 756 mmHg 95%
21:00 +7°C° 0 mm 3 mps 756 mmHg 96%
22:00 +7°C° 0 mm 3 mps 756 mmHg 96%
23:00 +6°C° 0 mm 4 mps 756 mmHg 96%

17 April, Saturday

Time Temperature Precipitation Wind Pressure Humidity
00:00 +6°C° 0 mm 4 mps 756 mmHg 96%
01:00 +6°C° 0 mm 4 mps 756 mmHg 96%
02:00 +6°C° 0 mm 4 mps 756 mmHg 96%
03:00 +6°C° 0 mm 4 mps 756 mmHg 96%
04:00 +6°C° 0 mm 4 mps 756 mmHg 96%
05:00 +6°C° 0 mm 4 mps 757 mmHg 95%
06:00 +6°C° 0 mm 4 mps 757 mmHg 95%
07:00 +6°C° 0 mm 4 mps 757 mmHg 94%
08:00 +8°C° 0 mm 4 mps 757 mmHg 89%
09:00 +10°C° 0 mm 4 mps 758 mmHg 83%
10:00 +10°C° 0 mm 5 mps 758 mmHg 78%
11:00 +12°C° 0 mm 5 mps 758 mmHg 76%
12:00 +12°C° 0 mm 5 mps 758 mmHg 75%
13:00 +12°C° 0 mm 5 mps 758 mmHg 74%
14:00 +12°C° 0.1 mm 5 mps 758 mmHg 75%
15:00 +12°C° 0.1 mm 5 mps 758 mmHg 76%
16:00 +12°C° 0.1 mm 5 mps 758 mmHg 78%
17:00 +11°C° 0 mm 4 mps 758 mmHg 82%
18:00 +10°C° 0 mm 4 mps 758 mmHg 86%
19:00 +9°C° 0 mm 3 mps 759 mmHg 90%
20:00 +9°C° 0 mm 3 mps 759 mmHg 91%
21:00 +8°C° 0 mm 3 mps 759 mmHg 92%
22:00 +8°C° 0 mm 3 mps 759 mmHg 93%
23:00 +8°C° 0 mm 3 mps 759 mmHg 93%

18 April, Sunday

Time Temperature Precipitation Wind Pressure Humidity
00:00 +8°C° 0 mm 3 mps 759 mmHg 93%
01:00 +8°C° 0 mm 3 mps 759 mmHg 93%
02:00 +8°C° 0 mm 3 mps 759 mmHg 93%
03:00 +8°C° 0 mm 3 mps 759 mmHg 94%
04:00 +7°C° 0 mm 3 mps 758 mmHg 94%
05:00 +8°C° 0 mm 3 mps 758 mmHg 90%
06:00 +8°C° 0 mm 4 mps 758 mmHg 87%
07:00 +8°C° 0 mm 4 mps 758 mmHg 83%
08:00 +11°C° 0 mm 4 mps 759 mmHg 77%
09:00 +12°C° 0 mm 5 mps 759 mmHg 70%
10:00 +13°C° 0 mm 5 mps 759 mmHg 64%
11:00 +14°C° 0.1 mm 5 mps 759 mmHg 63%
12:00 +14°C° 0.1 mm 6 mps 758 mmHg 62%
13:00 +14°C° 0.1 mm 6 mps 758 mmHg 61%
14:00 +14°C° 0.1 mm 6 mps 758 mmHg 62%
15:00 +14°C° 0.1 mm 5 mps 758 mmHg 63%
16:00 +14°C° 0.1 mm 5 mps 758 mmHg 64%
17:00 +13°C° 0.1 mm 5 mps 758 mmHg 69%
18:00 +11°C° 0.1 mm 4 mps 758 mmHg 73%
19:00 +10°C° 0.1 mm 4 mps 759 mmHg 78%
20:00 +10°C° 0 mm 4 mps 759 mmHg 80%
21:00 +10°C° 0 mm 4 mps 759 mmHg 82%
22:00 +8°C° 0 mm 4 mps 759 mmHg 84%
23:00 +8°C° 0 mm 4 mps 759 mmHg 87%
Show more